Погода в Дайр-эз-Зауре

Сирия     35°19′44″N   40°08′16″E
темп.,
°C
ветер,
м/с
пор.,
м/с
влажн.,
%
обл.,
%
осадки,
мм/ч
давл.,
гПа
погр.,
м
5 марта, пт
пт523:00+13ссз9127381 0.8 1011965
02:00+12сз9147379 1.4 1012706
05:00+11зсз1016735 0.0 1014561
08:00+13зсз1317572 0.0 10161076
11:00+17зсз1214380 0.0 10181330
14:00+19сз1013360 0.0 10171578
17:00+18зсз710420 0.0 1019686
20:00+15зсз612530 0.0 1021286
6 марта, сб
сб623:00+13зсз510610 0.0 1022321
02:00+11зсз410730 0.0 1023278
05:00+10зсз34770 0.0 102479
08:00+13з35650 0.0 1025452
11:00+16зсз33400 0.0 10241116
14:00+19з34280 0.0 10211510
17:00+18з34315 0.0 1020163
20:00+15сз23424 0.0 102023
7 марта, вс
вс723:00+13всв115023 0.0 101923
02:00+13ю125030 0.0 101823
05:00+12з224667 0.0 101822
08:00+14ссз345650 0.0 1019289
11:00+18сз33340 0.0 10171059
14:00+20з23240 0.0 10151762
17:00+19з35270 0.0 1013219
20:00+16сз34430 0.0 101458
8 марта, пн
пн823:00+14зсз334620 0.0 101433
02:00+13зсз355810 0.0 101382
05:00+11зсз367516 0.0 1014163
08:00+14зсз47618 0.0 1015591
11:00+18зсз56430 0.0 10141577
14:00+19з673817 0.0 10111939
17:00+18зсз694169 0.0 10111391
20:00+16зсз6115664 0.0 1013454
9 марта, вт
вт923:00+14зсз612653 0.0 1013432
02:00+12зсз510692 0.0 1014373
05:00+11з35770 0.0 101586
08:00+14зсз57640 0.0 1017630
11:00+18зсз45410 0.0 10171550
14:00+19зсз353831 0.0 10151953
17:00+18зсз343892 0.0 1015254
20:00+16с334696 0.0 101541